Location: Noordwijk
(52.2400°N, 4.4500°E)
Time: 16:21:23
(UTC+00:00)

CAS-4A - Pass Details

Date: 15 December 2022
Orbit: 514 x 531 km, 43.0° (Epoch: 01 February)

Event Time Altitude Azimuth Distance (km) Brightness Sun altitude
Exits shadow 05:08:18 18° 191° (SSW) 1,350 ? -22.5°
Drops below altitude 10° 05:10:50 10° 152° (SSE) 1,769 ? -22.1°
Sets 05:13:37 0° 133° (SE) 2,661 ? -21.7°
